APRIZESAT 5

Satellite information

Favourite Embed

Satellite Type and Status

PAYLOADIN ORBIT

Key statistics

Satellite APRIZESAT 5 at a glance.

Uptime

5233

Days in orbit

Revolutions

≈ 14.8

Per day

Orbit

SSO

Sun Synchronous Orbit

Inclination

98.2

Latest

Satellite identification and parameters

Extended collection of information and parameters for APRIZESAT 5.

Object identification

Identified? True

Debris? False

Object name: APRIZESAT 5

International designator: 2011-044E

Object number (NORAD): 37792

Object ID (CCSDS): 37792

Country: UNITED STATES OF AMERICA (US)

Current information (Y/N): Y

RCS size: MEDIUM

Orbital parameters

Period: 97.259 minutes

Inclination: 98.2355 deg

SMA: 7005.64 km

Apoapsis: 663.54 km

Periapsis: 591.469 km

RAAN: 270.6329 deg

Eccentricy: 0.00514377

Argument of periapsis: 239.42 deg

Mean anomaly: 120.1932 deg

Mean motion: 14.80577193 rev/day

Mean motion (dot): 0.00001836 rev/day2

B* drag term: 0.00024163786 1/REarth

Two-line elements (TLE)

Creation date: Dec. 14, 2025, 3:07 a.m.

Reference frame: TEME

Reference center: EARTH

Epoch: Dec. 13, 2025, 3:55 p.m. UTC

TLE line 0: 0 APRIZESAT 5

TLE line 1: 1 37792U 11044E 25347.66384173 .00001836 00000-0 24164-3 0 9995

TLE line 2: 2 37792 98.2355 270.6329 0051438 239.4200 120.1932 14.80577193771336

Live tracking on map

Real-time ground track for satellite APRIZESAT 5.

In-orbit conjunctions

There are no conjunctions computed for APRIZESAT 5, at the moment. Check back to stay up to date, as we update our databases every day.

Go to all conjunctions

Associated space launch

APRIZESAT 5 was lifted into orbit during the mission ‘Dnepr 1 | Sich-2’, on board a Dnepr space rocket.

The launch took place on Aug. 17, 2011, 7:12 a.m. from 370/13.

For more information about the launch, click the button.

Launch to space Dnepr 1 | Sich-2
Dnepr 1 | Sich-2

Agency: N/A

Status: Launch Successful

Launch date: Aug. 17, 2011, 7:12 a.m. UTC

Rocket: Dnepr

Launch pad: 370/13

Location: Dombarovskiy, Russian Federation

...

Latest news about this satellite

There are no fresh news available about this satellite. Check back as we update our databases every day.


Newsletter sign-up

Weekly statistics, charts and insights to help you stay on top of the space industry.